Regional Weather Roundup
Issued by NWS

Home | Current Version | Previous Version | Graphics & Text | Print | Product List | Glossary On
Versions: 1 2 3 4 5 6 7 8 9 10 11 12 13 14 15 16 17 18 19 20 21 22 23 24 25 26 27 28 29 30 31 32 33 34 35 36 37 38 39 40 41 42 43 44 45 46 47 48 49 50
000
ASUS43 KMPX 252210
RWRMN
WEATHER ROUNDUP FOR MINNESOTA
NATIONAL WEATHER SERVICE TWIN CITIES/CHANHASSEN MN
500 PM CDT SUN SEP 25 2016


NOTE: "FAIR" INDICATES FEW OR NO CLOUDS BELOW 12,000 FEET WITH NO
SIGNIFICANT WEATHER AND/OR OBSTRUCTIONS TO VISIBILITY. N/A MEANS
CURRENT SKY AND/OR WEATHER CONDITIONS ARE NOT AVAILABLE.

MNZ060>063-068>070-252300-
   Twin Cities Metro

CITY           SKY/WX    TMP DP  RH WIND       PRES   REMARKS
TWIN CITIES    CLOUDY    61  53  75 W12G21    29.90S
ST PAUL        CLOUDY    61  55  81 W13       29.90S
CRYSTAL        CLOUDY    61  54  77 W13       29.88S
BLAINE         PTSUNNY   59  57  94 W9G20     29.88S
LAKEVILLE      CLOUDY    59  54  82 W12G18    29.92S
EDEN PRAIRIE   CLOUDY    62  54  74 W15G22    29.90S
LAKEVILLE      CLOUDY    59  54  82 W12G18    29.92S
SOUTH ST PAUL  CLOUDY    59  58  94 W7        29.90S
LAKE ELMO      CLOUDY    61  57  88 W10G16    29.90S
$$
MNZ001>005-007-008-013>017-022>024-027-028-252300-
   Northwest Minnesota

CITY           SKY/WX    TMP DP  RH WIND       PRES   REMARKS
BEMIDJI        RAIN      53  51  93 W22       29.79R
HALLOCK        HVY RAIN  52  52 100 W17G26    29.81R
ROSEAU         CLOUDY    54  48  82 W14G24    29.72R HAZE
WARROAD        DRIZZLE   54  50  87 W12       29.70R
THIEF RVR FALL LGT RAIN  51  49  92 W26G33    29.82R FOG
CROOKSTON      RAIN      52  52 100 NW25G33   29.87R
FOSSTON        DRIZZLE   50  48  93 W23G33    29.85R
DETROIT LAKES  LGT RAIN  52  48  87 NW17      29.91R
MOORHEAD       CLOUDY    61  45  55 NW29      29.92S
PARK RAPIDS    LGT RAIN  54  48  80 NW25G37   29.84R
MAHNOMEN       CLOUDY    51  48  89 W30G39    29.87R FOG
$$
MNZ006-009>011-018-025>026-252300-
   North Central Minnesota

CITY           SKY/WX    TMP DP  RH WIND       PRES   REMARKS
BAUDETTE       CLOUDY    56  53  90 W16G23    29.67R
FLAG ISLAND    LGT RAIN  55  54  94 W10G17    29.63S
INTL FALLS     CLOUDY    58  53  84 SW10      29.67S
WASKISH        CLOUDY    55  52  88 W17G28    29.72S
BIG FORK       PTSUNNY   57  54  88 SW12      29.73S
GRAND RAPIDS   LGT RAIN  56  53  90 W13G18    29.79R
CRANE LAKE     CLOUDY    61  52  72 SW5       29.71S
COOK           CLOUDY    59  52  77 SW10      29.73S
WALKER         CLOUDY    55  48  80 W20G31    29.80R
$$
MNZ012-019>021-037-252300-
   Northeast Minnesota

CITY           SKY/WX    TMP DP  RH WIND       PRES   REMARKS
DULUTH         CLOUDY    60  53  77 W13G22    29.77F
ELY            CLOUDY    59  50  72 SW8       29.72S
HIBBING        CLOUDY    57  52  83 SW8G17    29.74F
EVELETH        PTSUNNY   60  52  76 SW10G16   29.76S
DULUTH HARBOR  CLOUDY    63  55  77 SW12      29.77F
TWO HARBORS    PTSUNNY   63  55  77 SW10      29.74F
SILVER BAY     CLOUDY    63  54  72 SW6       29.73R
GRAND MARAIS     N/A     62  62 100 SW7       29.71F
G MARAIS ARPRT PTSUNNY   61  55  82 S9        29.73F
$$
MNZ029>031-032-039>041-046>048-054>057-064-252300-
   West Central Minnesota

CITY           SKY/WX    TMP DP  RH WIND       PRES   REMARKS
FERGUS FALLS   CLOUDY    59  46  63 NW20G28   29.94S
MORRIS         CLOUDY    64  45  48 NW25      29.93S
ALEXANDRIA     CLOUDY    58  47  66 NW20G33   29.93R
ELBOW LAKE     CLOUDY    59  46  63 NW14G25   29.94R
GLENWOOD       PTSUNNY   57  48  72 W21G29    29.94R
BENSON         CLOUDY    61  45  55 NW17G25   29.96R
MADISON          N/A     68  45  42 W24G31    29.98R
WILLMAR        CLOUDY    63  48  59 NW18G29   29.96R
$$
MNZ033>034-036-042>043-049>051-058-059-252300-
   Central Minnesota

CITY           SKY/WX    TMP DP  RH WIND       PRES   REMARKS
ST CLOUD       CLOUDY    59  52  77 W16       29.89R
SAUK CENTRE    CLOUDY    59  48  67 W20G31    29.91R
PAYNESVILLE    CLOUDY    59  47  64 W15G25    29.94R
AITKIN         CLOUDY    57  52  82 W7G17     29.80S
PINE RIVER     CLOUDY    57  52  82 W12G22    29.86R
BRAINERD       CLOUDY    58  51  78 W17G28    29.85R
STAPLES        CLOUDY    55  48  76 W15G28    29.87R
LONG PRAIRIE   CLOUDY    55  46  71 W17G26    29.90S
LITTLE FALLS   PTSUNNY   57  50  77 W16G30    29.88R
LITCHFIELD     CLOUDY    63  52  67 W16G28    29.94R
BUFFALO        CLOUDY    59  52  75 W14G28    29.92R
MAPLE LAKE     CLOUDY    59  55  84 W9        29.92R
HUTCHINSON     CLOUDY    61  51  70 W15       29.95S
$$
MNZ037-044-045-052-053-252300-
   East Central Minnesota

CITY           SKY/WX    TMP DP  RH WIND       PRES   REMARKS
PRINCETON      CLOUDY    63  54  72 W12G20    29.88R
MORA           PTSUNNY   59  50  72 W15       29.87R
CAMBRIDGE      CLOUDY    63  52  67 W7        29.85R
MOOSE LAKE     CLOUDY    59  52  77 SW7       29.79S
HINCKLEY       CLOUDY    59  55  88 W16G25    29.84R
CLOQUET        DRIZZLE   59  52  77 W14G23    29.79R
MCGREGOR       CLOUDY    57  54  88 W10G17    29.80S
$$
MNZ071>073-080-081-089-090-097-098-252300-
   Southwest Minnesota

CITY           SKY/WX    TMP DP  RH WIND       PRES   REMARKS
MONTEVIDEO     PTSUNNY   66  48  52 NW21G28   29.98S
GRANITE FALLS  CLOUDY    65  49  56 W21G31    30.00R
CANBY          MOSUNNY   65  44  46 NW22G31   30.01S
MARSHALL       MOSUNNY   64  46  52 NW23      29.99F
REDWOOD FALLS  CLOUDY    62  47  57 W15G23    29.97S
OLIVIA         CLOUDY    61  46  59 W16G28    29.96R
PIPESTONE      PTSUNNY   63  39  42 NW16G31   30.05R
WINDOM         CLOUDY    61  48  63 W16G22    30.02R
WORTHINGTON    CLOUDY    62  46  55 W24G31    30.04F
JACKSON        CLOUDY    61  46  59 W17G25    30.04R
TRACY          CLOUDY    63  49  60 W9G17     30.01F
$$
MNZ065>067-074>077-082>085-091>093-252300-
   South Central Minnesota

CITY           SKY/WX    TMP DP  RH WIND       PRES   REMARKS
MANKATO        CLOUDY    60  52  74 W21G26    29.97R
NEW ULM        CLOUDY    61  48  63 NW16      29.98R
ST JAMES       CLOUDY    61  48  63 W12G22    30.00S
FAIRMONT       CLOUDY    59  52  77 W15       30.02R
GLENCOE        CLOUDY    61  55  81 W14G20    29.93F
FARIBAULT      CLOUDY    61  55  82 W12G18    29.95S
OWATONNA       DRIZZLE   59  55  88 W8        29.96R
WASECA         CLOUDY    59  52  77 W10G18    29.97S
ALBERT LEA     CLOUDY    57  55  94 W5        29.99R FOG
$$
MNZ078>079-086>088-094>096-252300-
   Southeast Minnesota

CITY           SKY/WX    TMP DP  RH WIND       PRES   REMARKS
ROCHESTER      CLOUDY    63  52  67 W16G24    29.95R
RED WING       CLOUDY    66  52  59 W13       29.89R
STANTON        CLOUDY    63  54  73 W10G18    29.92R
DODGE CENTER   CLOUDY    61  52  72 W17G23    29.95R
WINONA         PTSUNNY   70  54  56 W9G16     29.90S
AUSTIN         CLOUDY    61  52  72 W18G25    29.98R
PRESTON        CLOUDY    63  51  64 W20G25    29.95R
$$
ABBREVIATIONS USED IN REMARKS
   TC - TEMPERATURES IN CELSIUS
  WCI - WIND CHILL INDEX
   HX - HEAT INDEX
  VSB - VISIBILITY
$$




USA.gov is the U.S. government's official web portal to all federal, state and local government web resources and services.